This is the latest recevied weather packets stored in our database for station/object SQ9NFI-4. If no packets are shown the sender has not sent any weather packets the latest 10 day(s).
| Time | Temp. | Humidity | Pressure | Rain* | Wind** | Luminosity | Snow |
|---|---|---|---|---|---|---|---|
| 1777820716 | 26.11° C | 21% | 1016.6 hPa | 0 mm | - | 268 W/m² | - |
| 1777820416 | 26.67° C | 23% | 1016.6 hPa | 0 mm | - | 280 W/m² | - |
| 1777820116 | 26.11° C | 23% | 1016.6 hPa | 0 mm | - | 294 W/m² | - |
| 1777819816 | 26.11° C | 21% | 1016.9 hPa | 0 mm | - | 269 W/m² | - |
| 1777819516 | 26.67° C | 23% | 1016.9 hPa | 0 mm | - | 314 W/m² | - |
| 1777818016 | 26.67° C | 21% | 1016.9 hPa | 0 mm | - | 383 W/m² | - |
| 1777817716 | 26.67° C | 22% | 1016.9 hPa | 0 mm | - | 397 W/m² | - |
| 1777817416 | 26.67° C | 22% | 1017.3 hPa | 0 mm | - | 412 W/m² | - |
| 1777817116 | 27.22° C | 24% | 1017.3 hPa | 0 mm | - | 419 W/m² | - |
| 1777816816 | 26.67° C | 24% | 1017.3 hPa | 0 mm | - | 434 W/m² | - |
| 1777816516 | 27.22° C | 23% | 1017.3 hPa | 0 mm | - | 444 W/m² | - |
| 1777816216 | 26.67° C | 23% | 1017.3 hPa | 0 mm | - | 455 W/m² | - |
| 1777815616 | 27.22° C | 25% | 1017.3 hPa | 0 mm | - | 476 W/m² | - |
| 1777815316 | 26.67° C | 21% | 1017.3 hPa | 0 mm | - | 491 W/m² | - |
| 1777814416 | 26.67° C | 23% | 1017.3 hPa | 0 mm | - | 522 W/m² | - |
| 1777814116 | 26.11° C | 23% | 1017.3 hPa | 0 mm | - | 538 W/m² | - |
| 1777813516 | 26.67° C | 24% | 1017.3 hPa | 0 mm | - | 555 W/m² | - |
| 1777813216 | 26.67° C | 26% | 1017.6 hPa | 0 mm | - | 563 W/m² | - |
| 1777812916 | 26.67° C | 23% | 1017.6 hPa | 0 mm | - | 572 W/m² | - |
| 1777812616 | 26.67° C | 25% | 1017.6 hPa | 0 mm | - | 569 W/m² | - |
| 1777812316 | 26.67° C | 23% | 1017.6 hPa | 0 mm | - | 580 W/m² | - |
| 1777812016 | 26.67° C | 24% | 1017.6 hPa | 0 mm | - | 592 W/m² | - |
| 1777811716 | 26.67° C | 23% | 1017.6 hPa | 0 mm | - | 600 W/m² | - |
| 1777811416 | 26.11° C | 24% | 1017.6 hPa | 0 mm | - | 606 W/m² | - |
| 1777811116 | 26.67° C | 28% | 1018 hPa | 0 mm | - | 614 W/m² | - |
* Rain latest hour (hover to see other rain measurements)
** Current wind speed in m/s (hover to see current wind gust speed)